GFSSW_con_sbcape_099.txt.gz
CAPE
4 4 3 4 4 4 4 4 2 1 1 1 1 2 0 0 0 0 0 0 0 0 0 0 0 0 0 34 7 694 651 267 207 228 601 265 402 627 853 350 346 577 84 20 36
4 3 4 4 4 4 4 3 2 2 2 2 1 0 1 0 0 0 0 0 0 4 0 0 0 0 0 6 71 498 276 356 275 264 496 412 512 724 594 540 532 422 10 0 59
3 4 2 5 5 5 4 4 4 1 1 1 1 0 0 0 0 0 0 0 0 0 0 0 0 0 0 0 100 483 213 353 335 227 200 369 504 157 586 637 493 110 22 0 81
4 1 2 1 1 2 5 5 2 3 0 2 0 0 0 0 0 0 0 0 0 0 0 0 0 0 0 0 66 215 305 249 240 123 251 191 126 115 439 376 373 119 37 4 81
1 1 2 1 1 1 2 1 1 1 2 1 1 0 0 0 0 0 0 0 0 0 0 0 0 0 0 0 4 226 113 51 335 246 193 52 9 126 389 325 522 507 34 2 17
2 2 1 1 1 1 1 1 1 2 1 1 1 0 0 0 0 0 0 0 0 0 0 0 0 0 0 0 5 149 85 32 158 307 208 119 55 163 546 432 581 311 27 4 7
4 3 2 1 1 1 1 1 1 3 0 0 0 0 0 0 0 0 0 0 0 0 0 0 0 0 0 0 32 206 197 1 84 249 216 202 136 217 516 371 227 125 44 11 14
3 4 3 1 1 1 1 0 0 1 1 0 0 0 0 0 0 0 0 0 0 0 0 0 0 0 0 0 18 141 114 60 19 27 230 277 209 769 486 516 168 109 53 18 19
7 2 3 1 4 2 1 0 0 0 0 0 0 0 0 0 0 0 0 0 0 0 0 0 0 0 0 0 5 174 157 76 33 104 243 112 179 358 236 633 179 80 57 54 89
8 8 5 5 1 2 0 0 0 0 0 0 0 0 0 0 0 0 0 0 0 0 0 0 0 0 0 0 13 163 122 132 144 79 380 218 87 502 303 616 291 102 67 106 218
11 9 2 4 1 1 0 0 0 0 0 0 0 0 0 0 0 0 0 0 0 0 0 0 0 0 0 0 2 117 50 27 144 175 224 113 181 574 1063 807 894 302 109 109 163
13 9 4 2 1 0 0 0 0 0 0 0 0 0 0 0 0 0 0 0 0 0 0 0 0 0 0 0 1 93 118 80 223 365 169 110 36 247 589 632 771 963 551 290 356
6 1 3 0 0 0 0 0 0 0 0 0 0 0 0 0 0 0 0 0 0 0 0 0 0 0 0 0 0 101 98 36 22 356 10 7 90 210 283 452 863 832 700 644 389
5 3 1 0 0 0 0 0 0 0 0 0 0 0 0 0 0 0 0 0 0 0 0 0 0 0 0 3 0 11 38 40 56 6 115 7 20 218 282 913 1097 981 887 706 517
2 2 0 1 0 0 0 0 0 0 23 0 0 0 0 0 0 0 0 0 2 0 0 0 0 0 0 0 0 29 63 20 1 0 204 56 113 53 200 410 965 1108 1106 914 561
1 1 0 0 0 0 0 0 0 0 68 0 0 0 0 0 0 0 0 0 3 1 0 0 0 0 1 8 0 39 45 26 3 2 74 221 44 94 256 230 724 950 1058 998 848
0 0 0 0 0 0 0 0 0 79 4 4 0 0 0 0 0 0 0 0 4 3 0 13 4 18 0 48 4 32 33 18 2 1 19 129 125 202 161 132 147 201 246 756 1041
0 0 0 0 0 0 1 73 165 42 63 2 0 0 0 24 5 0 3 1 6 35 12 12 14 1 0 15 41 21 10 10 1 0 3 53 252 209 188 31 7 2 32 228 447
0 0 0 0 0 0 69 162 32 72 9 12 0 2 8 0 12 8 4 23 7 4 24 55 19 0 0 0 0 19 1 3 40 37 27 157 190 159 154 154 31 8 9 63 478
0 0 0 0 0 8 161 14 94 8 6 12 18 1 20 19 3 6 12 0 0 0 0 17 5 0 0 0 0 0 2 14 6 68 53 227 226 302 55 17 7 5 9 20 205
0 0 0 0 0 79 67 142 47 1 19 82 85 17 3 15 9 6 17 0 0 0 0 2 14 0 0 0 0 0 0 2 44 31 118 140 390 138 43 0 12 6 8 10 18
0 7 0 0 17 21 144 69 0 1 20 45 36 2 0 0 20 21 3 0 0 0 0 0 3 3 0 0 0 0 3 6 7 27 10 54 85 11 23 10 3 4 2 3 3
0 0 0 0 85 0 0 0 0 0 4 50 61 20 14 20 28 39 9 0 0 0 1 0 0 43 1 0 0 0 0 0 9 42 96 64 187 81 9 19 7 4 1 0 0
0 5 0 0 0 0 0 0 0 0 0 0 3 64 72 71 76 36 12 0 0 0 0 0 2 13 9 19 0 0 0 0 0 6 39 141 136 91 19 18 7 6 5 4 1
0 0 0 1 0 0 0 0 0 0 0 0 0 8 112 189 111 69 8 0 0 0 0 0 2 0 1 0 0 0 0 0 0 0 34 489 182 105 102 23 11 6 3 5 2
0 0 0 0 0 0 0 0 0 0 0 0 0 0 0 70 105 90 17 19 8 0 0 0 9 0 0 0 0 0 0 0 0 0 16 237 21 45 37 65 29 11 5 8 5
0 0 0 0 0 0 0 0 0 0 0 0 0 0 0 0 0 1 0 1 1 2 0 1 4 0 0 2 0 0 0 0 0 0 7 246 23 12 13 17 22 11 9 5 2

GFSSW_con_sbcape_102.txt.gz
CAPE
5 4 4 4 4 4 4 4 2 2 2 2 1 0 0 0 0 0 0 0 0 0 0 0 0 0 0 0 72 366 99 191 229 507 834 618 613 756 888 315 356 265 17 7 30
1 2 2 5 4 4 4 3 3 2 1 1 1 0 0 1 0 0 0 0 0 0 0 0 0 0 0 0 27 373 70 110 286 470 525 353 234 593 616 400 489 13 10 2 32
2 2 1 2 1 0 4 3 3 2 3 0 0 0 0 0 0 0 0 0 0 0 0 0 0 0 0 0 28 194 210 345 508 438 248 526 723 619 619 554 259 28 0 32 18
2 5 4 1 1 1 1 2 4 2 2 2 0 0 0 0 0 0 0 0 0 0 0 0 0 0 0 0 10 105 229 331 475 310 204 498 417 608 550 418 76 29 19 26 45
1 2 3 3 1 1 1 2 4 3 1 1 0 0 0 0 0 0 0 0 0 0 0 0 0 0 0 0 0 186 181 427 192 342 249 148 162 430 565 392 197 50 37 21 39
1 2 2 1 1 1 1 0 1 2 2 1 0 0 0 0 0 0 0 0 0 0 0 0 0 0 0 0 0 67 117 185 321 270 77 38 69 55 430 380 450 79 57 16 35
5 2 2 2 1 1 2 3 1 1 2 0 0 0 0 0 0 0 0 0 0 0 0 0 0 0 0 0 0 102 84 82 327 142 149 82 119 130 714 530 615 114 48 22 34
4 2 4 2 1 1 2 2 2 4 2 0 0 0 0 0 0 0 0 0 0 0 0 0 0 0 0 0 0 37 133 104 406 357 231 114 156 123 394 482 368 82 43 30 45
2 3 5 5 1 1 1 0 1 0 1 0 0 0 0 0 0 0 0 0 0 0 0 0 0 0 0 0 0 68 95 87 80 270 271 233 270 118 212 570 172 75 46 33 62
11 9 7 4 1 1 0 0 0 0 0 0 0 0 0 0 0 0 0 0 0 0 0 0 0 0 0 0 0 23 66 96 116 227 337 244 158 123 102 303 169 105 65 67 91
10 7 5 1 0 0 0 0 0 0 0 0 0 0 0 0 0 0 0 0 0 0 0 0 0 0 0 0 0 10 102 87 70 553 330 169 152 68 103 614 186 94 65 73 113
9 4 1 0 0 0 0 0 0 0 0 0 0 0 0 0 0 0 0 0 0 0 0 0 0 0 0 0 0 0 24 106 173 235 192 133 43 97 186 224 512 123 77 122 115
2 3 2 0 0 0 0 0 0 0 0 0 0 0 0 0 0 0 0 0 0 0 0 0 0 0 0 0 0 0 8 0 260 59 0 12 53 2 26 8 115 415 229 163 213
3 2 1 0 0 0 0 0 0 0 0 0 0 0 0 0 0 0 0 0 0 0 0 0 0 0 0 0 0 0 104 0 364 46 60 152 159 107 133 142 148 504 793 350 211
2 2 0 1 0 0 0 0 0 0 8 0 0 0 0 0 0 0 0 0 0 0 0 0 0 0 0 0 0 2 51 23 28 33 77 101 90 121 58 11 265 467 833 718 279
1 1 0 0 0 0 0 0 0 0 28 0 0 0 0 0 0 0 0 0 0 4 0 0 0 0 0 0 0 0 0 47 8 0 86 84 136 164 51 163 510 782 817 769 540
0 0 0 0 0 0 0 0 0 14 20 3 1 0 0 0 0 1 0 0 0 0 0 0 0 0 0 0 2 2 17 53 49 0 3 155 157 228 151 14 48 283 237 361 743
0 0 0 0 0 0 0 15 41 35 22 12 6 0 0 0 10 0 0 0 0 33 41 0 28 0 0 5 62 41 49 82 37 18 5 230 244 154 113 35 41 48 93 229 733
0 0 0 0 0 0 0 3 2 8 83 0 0 12 0 71 70 0 0 4 1 74 53 43 87 48 0 15 6 31 26 34 57 4 39 441 231 174 41 56 31 1 4 62 223
0 0 3 0 0 0 28 0 118 11 0 3 76 38 37 6 49 43 30 27 2 11 0 7 103 63 0 0 0 1 19 6 14 48 128 432 293 347 111 63 39 4 0 0 15
0 0 0 0 0 0 82 18 28 7 4 94 156 76 13 0 16 7 0 3 0 0 0 0 16 0 0 0 0 0 0 0 1 36 62 330 271 175 120 32 8 2 0 0 1
0 0 1 0 0 56 45 32 2 43 7 39 52 78 32 8 1 0 4 0 0 0 0 0 2 15 0 0 0 0 0 6 14 4 29 259 129 61 64 88 0 0 0 0 0
9 19 0 0 26 65 0 0 0 12 29 42 84 23 0 0 6 0 0 0 0 0 0 0 0 25 1 0 0 0 0 0 0 0 101 145 271 99 64 17 6 1 0 0 0
4 8 0 0 0 0 0 0 0 0 0 6 53 24 6 22 1 0 5 0 0 0 0 0 0 0 0 5 0 0 0 0 0 0 1 494 212 47 50 7 3 4 1 0 0
26 0 0 49 0 0 0 0 0 0 0 0 9 5 66 86 18 65 0 0 0 0 0 0 0 0 1 0 0 0 0 0 0 0 58 456 313 132 54 54 4 3 0 0 0
1 1 0 0 0 0 0 0 0 0 0 0 0 0 0 123 32 80 51 15 30 1 1 0 6 0 4 0 0 0 0 0 0 0 627 439 263 108 79 52 18 4 0 0 0
0 0 0 0 0 0 13 0 0 0 0 0 0 0 0 7 2 4 30 23 53 7 15 7 35 8 0 0 0 0 0 0 0 0 133 332 265 101 36 26 14 10 4 1 0

GFSSW_con_sbcape_105.txt.gz
CAPE
1 1 0 1 4 6 5 4 3 2 2 2 2 1 2 0 0 0 0 0 0 0 0 0 0 0 0 0 0 71 82 149 188 304 467 700 782 823 471 43 20 0 0 0 32
1 1 1 1 2 4 1 5 4 3 4 2 1 1 2 0 0 0 0 0 0 0 0 0 0 0 0 0 0 88 16 19 168 524 732 672 706 713 375 228 206 2 0 0 32
2 1 1 0 6 1 1 2 5 4 3 3 2 1 2 0 0 0 0 0 0 0 0 0 0 0 0 0 0 18 27 0 0 280 383 227 630 720 492 22 0 0 0 0 16
2 1 1 2 0 0 0 1 2 5 3 4 2 0 0 0 0 0 0 0 0 0 0 0 0 0 0 0 1 514 191 110 578 388 295 566 339 415 303 151 31 0 0 0 23
4 2 4 2 2 1 1 0 0 0 3 3 2 0 0 0 0 0 0 0 0 0 0 0 0 0 0 0 0 179 116 153 429 365 263 412 407 443 168 355 16 1 0 4 41
1 1 2 1 1 2 0 0 0 3 3 3 1 1 0 0 0 0 0 0 0 0 0 0 0 0 0 0 0 102 302 148 337 300 153 340 368 156 410 530 14 2 0 0 36
1 1 1 1 1 1 1 1 0 0 0 3 0 0 0 0 0 0 0 0 0 0 0 0 0 0 0 0 0 103 62 95 203 98 118 94 44 120 615 583 201 24 2 5 25
1 3 5 1 1 2 1 3 2 1 0 2 0 0 0 0 0 0 0 0 0 0 0 0 0 0 0 0 0 0 39 38 132 121 115 68 59 105 451 444 484 206 43 11 33
2 1 0 4 6 2 0 0 0 2 2 0 0 0 0 0 0 0 0 0 0 0 0 0 0 0 0 0 0 0 0 90 258 195 132 96 19 80 167 231 325 137 60 9 29
9 4 4 6 1 0 0 0 0 0 0 0 0 0 0 0 0 0 0 0 0 0 0 0 0 0 0 0 0 0 0 230 352 317 192 145 112 14 80 152 166 95 50 14 23
1 3 5 4 0 0 0 0 0 0 0 0 0 0 0 0 0 0 0 0 0 0 0 0 0 0 0 0 0 0 4 88 176 402 171 112 37 0 37 173 200 135 34 20 14
0 0 1 4 0 0 0 0 0 0 0 0 0 0 0 0 0 0 0 0 0 0 0 0 0 0 0 0 0 0 2 246 425 432 97 170 93 24 75 157 138 159 21 23 20
6 3 1 0 1 0 0 0 0 0 0 0 0 0 0 0 0 0 0 0 0 0 0 0 0 0 0 0 0 0 0 115 265 13 162 39 57 14 9 47 68 40 172 33 12
3 3 1 0 0 0 0 0 0 0 0 0 0 0 0 0 0 0 0 0 0 0 0 0 0 0 0 0 0 0 11 226 85 73 107 125 11 0 1 14 13 20 180 46 20
1 1 1 0 0 0 0 0 0 0 0 0 0 0 0 0 0 0 0 0 0 0 0 0 0 0 0 0 0 0 411 294 38 4 73 44 109 61 9 6 7 40 0 11 22
0 0 0 0 0 0 0 0 0 0 2 0 0 0 0 0 0 0 0 0 0 0 0 0 0 0 0 0 0 0 0 93 140 29 83 199 152 123 66 19 6 6 0 51 47
0 0 1 0 0 0 0 0 0 0 4 0 0 0 0 0 0 10 0 0 0 0 0 0 0 0 0 0 0 0 0 0 1 25 12 155 116 46 36 0 0 0 1 309 306
0 0 0 0 0 0 0 0 23 9 6 7 6 0 0 0 0 5 0 0 0 0 0 0 0 0 0 0 0 0 0 3 19 0 0 48 136 111 22 67 132 213 48 160 304
0 0 0 0 0 0 0 3 28 13 8 10 0 1 0 30 36 13 0 0 0 0 0 1 0 0 0 0 0 0 0 0 0 1 1 262 259 255 79 51 63 61 118 37 35
0 0 0 0 0 0 6 31 20 24 20 1 19 27 109 12 29 9 9 6 53 0 0 5 0 3 14 12 0 0 0 0 0 0 13 209 308 235 77 43 3 0 6 6 27
0 0 0 0 0 0 27 27 52 45 0 33 64 104 32 11 6 0 0 2 0 0 0 0 0 14 0 0 0 0 0 0 0 0 0 203 126 266 43 7 2 0 0 2 17
0 0 0 0 0 0 2 61 23 0 1 27 57 36 47 0 0 0 0 0 0 0 0 0 0 0 0 0 0 0 0 0 0 0 17 246 101 61 0 0 0 0 0 0 5
0 6 12 0 0 5 21 0 0 0 1 19 53 7 0 4 5 0 0 0 0 0 0 0 0 0 0 0 0 0 0 0 0 0 5 10 130 82 1 0 0 0 0 0 0
0 81 0 0 0 0 0 0 0 0 0 0 13 5 23 7 4 0 0 0 0 0 0 0 0 0 0 0 0 0 0 0 0 0 232 283 96 34 9 0 0 0 0 0 0
48 11 0 2 0 0 0 0 0 0 0 0 0 0 0 82 1 35 13 0 0 0 0 0 0 0 0 0 0 0 0 0 0 18 78 104 80 49 8 0 2 0 0 0 0
73 0 0 0 0 0 0 0 0 0 0 0 0 0 0 72 8 6 0 8 0 0 0 0 0 0 0 0 0 0 0 0 0 482 445 138 61 16 5 0 2 1 0 0 0
63 20 25 0 0 0 0 0 0 0 0 0 0 0 0 0 0 0 0 0 0 2 4 0 0 0 0 0 0 0 0 0 0 0 427 175 140 26 14 0 0 0 0 0 0

GFSSW_con_sbcape_108.txt.gz
CAPE
0 1 1 1 0 2 2 1 4 4 2 5 5 3 2 4 0 0 0 0 0 0 0 0 0 0 0 0 0 194 51 23 2 153 272 521 161 301 467 24 1 0 0 6 133
0 0 1 1 2 2 1 1 2 4 4 1 4 4 1 4 0 0 0 0 0 0 0 0 0 0 0 0 0 139 0 20 32 119 257 515 304 167 102 5 19 0 19 108 142
2 0 1 0 3 0 0 1 1 1 2 1 3 2 2 1 0 0 0 0 0 0 0 0 0 0 0 0 0 5 0 27 8 7 1 527 388 514 62 83 3 9 43 22 83
1 1 1 1 3 2 0 0 1 1 0 0 3 2 0 0 0 0 0 0 0 0 0 0 0 0 0 0 0 4 140 143 486 401 107 417 406 193 143 92 19 1 36 94 169
1 1 2 0 1 1 0 0 2 1 0 1 4 1 0 0 0 0 32 0 0 0 0 0 0 0 0 0 0 169 220 166 310 421 521 490 369 171 114 77 44 10 99 150 47
2 2 1 1 1 1 1 2 0 0 0 1 4 1 0 0 0 0 0 0 0 0 0 0 0 0 0 0 0 0 373 580 376 377 477 390 156 129 65 67 64 9 6 49 47
2 2 3 0 1 1 1 0 0 0 0 0 3 0 0 0 0 0 0 0 0 0 0 0 0 0 0 0 0 437 247 57 387 202 363 150 63 75 502 574 16 16 14 11 47
4 5 1 0 1 0 2 2 2 1 0 0 1 0 0 0 0 0 0 0 0 0 0 0 0 0 0 0 0 116 200 322 373 64 286 17 58 183 391 371 9 42 24 18 123
2 2 1 0 4 4 1 0 0 1 3 1 0 0 0 0 0 0 0 0 0 0 0 0 0 0 0 0 0 0 11 47 37 126 117 89 42 83 290 438 264 108 37 20 92
3 2 1 4 6 0 0 0 0 0 0 0 0 0 0 0 0 0 0 0 0 0 0 0 0 0 0 0 0 0 2 240 348 252 152 92 29 148 301 305 103 105 150 57 57
2 1 0 1 4 0 0 0 0 0 0 0 0 0 0 0 0 0 0 0 0 0 0 0 0 0 0 0 0 0 0 283 269 183 239 64 67 116 190 117 3 147 179 46 70
2 1 0 0 2 0 0 0 0 0 0 0 0 0 0 0 0 0 0 0 0 0 0 0 0 0 0 0 0 0 0 138 273 64 144 83 47 72 166 132 79 141 166 30 86
4 1 0 1 0 0 0 0 0 0 0 0 0 0 0 0 0 0 0 0 0 0 0 0 0 0 0 0 0 0 0 150 355 267 136 60 48 84 122 95 113 177 111 135 47
1 2 1 1 0 0 0 0 0 0 0 0 0 0 0 0 0 0 0 0 0 0 0 0 0 0 0 0 0 0 0 179 146 76 2 73 5 30 55 123 169 181 115 145 20
1 0 0 0 0 0 0 0 0 0 0 0 0 0 0 0 0 0 0 0 0 0 0 0 0 0 0 0 0 0 322 279 124 29 10 15 15 0 3 75 77 101 78 113 63
0 0 0 0 0 0 0 0 0 0 0 0 0 0 0 0 0 0 0 0 0 0 0 0 0 0 0 0 0 286 252 154 82 53 47 42 24 64 10 12 107 127 73 179 16
0 0 0 0 0 0 0 0 0 0 0 0 0 0 0 0 0 0 0 0 0 0 0 0 0 0 0 0 0 28 199 30 62 7 2 4 31 3 19 29 67 124 70 27 2
0 0 0 0 0 0 0 0 0 0 0 0 0 0 0 0 0 0 0 0 0 0 0 0 0 0 0 0 0 0 0 2 1 5 0 0 2 237 13 4 0 19 131 86 217
0 0 0 0 0 0 0 0 0 0 0 0 0 0 0 0 1 0 0 0 0 0 0 0 0 0 0 0 0 0 2 0 0 0 16 162 170 111 62 30 136 52 170 122 106
0 0 0 0 0 0 0 0 0 0 1 0 0 0 0 0 0 7 0 0 0 0 0 0 0 0 0 0 0 0 0 0 0 0 2 81 173 116 109 143 64 9 14 67 140
0 0 0 0 0 0 0 0 1 0 0 0 0 0 0 0 0 1 3 0 0 0 0 0 0 0 0 0 0 0 0 0 0 0 0 84 102 147 52 2 0 0 3 44 116
0 0 0 0 0 0 0 0 0 0 0 0 0 4 0 0 0 0 0 0 0 0 0 0 0 0 0 0 0 0 0 0 0 0 0 40 179 4 0 0 0 0 0 14 51
0 0 0 0 0 0 0 0 0 0 0 0 0 2 3 1 8 2 0 3 0 0 0 0 0 0 0 0 0 0 0 0 0 0 41 38 190 23 0 0 0 0 0 0 2
0 0 0 0 0 0 0 0 0 0 0 0 0 0 0 0 0 3 0 0 0 0 0 0 0 0 0 0 0 0 0 0 0 0 155 140 174 19 4 0 0 0 0 1 2
0 15 0 0 0 0 0 0 0 0 0 0 0 0 0 0 0 0 0 0 0 0 0 0 0 0 0 0 0 0 0 0 0 0 0 128 77 32 0 0 0 0 0 0 2
0 0 0 0 0 0 0 0 0 0 0 0 0 0 0 0 0 0 0 0 0 0 0 0 0 0 0 0 0 0 0 0 351 248 217 99 48 13 4 0 0 0 0 0 0
0 0 0 3 0 0 0 0 0 0 0 0 0 0 0 0 0 0 0 0 0 0 0 0 0 0 0 0 0 0 0 0 67 294 242 112 44 20 9 0 0 0 0 0 0

GFSSW_con_sbcape_111.txt.gz
CAPE
2 1 1 1 1 0 1 0 1 0 2 3 2 3 3 5 0 0 0 0 0 0 0 0 0 0 0 0 0 176 21 1 11 129 98 168 115 329 125 43 53 0 5 0 253
1 0 1 1 2 3 1 0 0 0 2 1 1 4 3 4 0 0 0 0 0 0 0 0 0 0 0 0 0 87 0 25 41 177 141 215 264 114 16 28 83 0 0 202 321
1 1 1 1 1 0 0 1 0 0 0 0 0 4 2 0 0 0 0 0 0 0 0 0 0 0 0 0 0 11 0 30 45 217 151 170 220 162 12 27 12 48 82 203 201
1 1 1 1 1 1 1 0 1 0 0 0 0 5 2 0 0 0 0 0 0 0 0 0 0 0 0 0 0 0 1 14 291 47 0 244 166 77 33 34 27 142 185 140 67
2 2 1 1 1 1 1 2 2 1 1 0 0 2 0 0 0 0 15 0 0 0 0 0 0 0 0 0 0 0 125 241 409 144 190 362 267 160 61 33 89 137 173 100 73
8 8 3 3 1 2 1 0 0 1 0 0 1 1 0 0 0 0 0 0 0 0 0 0 0 0 0 0 0 0 264 490 493 530 345 110 75 14 54 161 66 87 120 97 83
3 8 4 7 2 2 0 0 3 1 0 0 1 0 0 0 0 0 0 0 0 0 0 0 0 0 0 0 0 226 133 331 433 417 333 185 106 12 23 1 48 100 103 85 9
4 3 1 1 2 2 1 3 3 0 0 2 1 0 0 0 0 0 0 0 0 0 0 0 0 0 0 0 43 177 96 163 366 199 187 1 51 60 527 224 22 75 99 30 32
5 2 3 3 1 6 4 1 2 1 1 2 0 0 0 0 0 0 0 0 0 0 0 0 0 0 0 0 0 0 0 74 23 223 298 42 16 44 266 70 37 7 33 31 28
4 2 0 1 0 3 0 0 0 0 0 0 0 0 0 0 0 0 0 0 0 0 0 0 0 0 0 0 0 0 1 65 58 91 209 95 17 141 229 8 12 99 16 34 100
1 2 1 0 0 2 0 0 0 0 0 0 0 0 0 0 0 0 0 0 0 0 0 0 0 0 0 0 0 0 0 21 311 244 237 87 42 173 187 92 111 67 128 97 102
4 1 1 0 0 0 0 0 0 0 0 0 0 0 0 0 0 0 0 0 0 0 0 0 0 0 0 0 0 0 0 102 200 131 169 83 106 83 129 76 96 41 106 68 133
3 2 2 2 0 0 0 0 0 0 0 0 0 0 0 0 0 0 0 0 0 0 0 0 0 0 0 0 0 0 0 17 288 247 195 135 80 87 84 79 48 32 87 111 36
1 2 1 0 0 0 0 0 0 0 0 0 0 0 0 0 0 0 0 0 0 0 0 0 0 0 0 0 0 0 0 0 355 124 62 59 8 65 83 63 18 49 51 138 40
1 2 1 0 0 0 0 0 0 0 0 0 0 0 0 0 0 0 0 0 0 0 0 0 0 0 0 0 0 0 16 0 194 22 12 22 0 0 45 40 20 6 10 135 49
0 1 0 0 0 0 0 0 0 0 0 0 0 0 0 0 0 0 0 0 0 0 0 0 0 0 0 0 0 222 173 74 0 9 2 5 1 22 51 41 11 26 95 131 65
0 0 0 0 0 0 0 0 0 0 0 0 0 0 0 0 0 0 0 0 0 0 0 0 0 0 0 0 0 224 37 39 32 32 1 8 22 21 36 48 93 74 135 166 73
0 0 0 0 0 0 0 0 0 0 0 0 0 0 0 0 0 0 0 0 0 0 0 0 0 0 0 0 0 196 1 1 5 10 0 24 21 52 17 12 28 84 138 162 116
0 0 0 0 0 0 0 0 0 0 0 0 0 0 0 0 0 0 0 0 0 0 0 0 0 0 0 0 0 0 0 0 0 0 5 37 175 145 50 35 44 96 56 82 178
0 0 0 0 0 0 0 0 0 0 0 0 0 0 0 0 0 0 0 0 0 0 0 0 0 0 0 0 0 0 0 0 0 0 0 38 102 188 38 33 31 12 21 9 55
0 0 0 0 0 0 0 0 0 0 1 0 0 0 0 0 0 0 0 0 0 0 0 0 0 0 0 0 0 0 0 0 0 0 0 24 37 40 74 1 4 21 17 48 86
0 0 0 0 0 0 0 0 0 0 0 0 0 0 0 0 0 0 0 0 0 0 0 0 0 0 0 0 0 0 0 0 0 0 0 0 29 7 9 0 0 3 29 12 47
0 0 0 0 0 0 0 0 0 0 0 0 0 0 0 0 0 0 0 0 0 0 0 0 0 0 2 0 0 0 0 0 0 0 1 0 36 2 0 0 0 1 15 3 2
0 0 0 0 0 0 0 0 0 0 0 0 0 0 0 0 0 0 0 0 0 0 17 0 0 0 0 0 0 0 0 0 0 0 13 41 189 7 0 0 0 0 1 1 1
0 0 0 0 0 0 0 0 0 0 0 0 0 0 0 0 0 0 0 0 0 0 0 0 0 0 0 0 0 0 0 0 0 0 12 54 118 43 0 0 0 0 1 1 1
0 0 0 0 0 0 0 0 0 0 0 0 0 0 0 0 0 0 0 0 0 0 0 0 0 0 0 0 0 0 0 0 140 222 124 118 18 5 0 0 0 0 1 3 3
0 0 0 0 0 0 0 0 0 0 0 0 0 0 0 0 0 0 0 0 0 0 0 0 0 0 0 0 0 0 0 0 157 272 189 115 81 11 0 0 0 0 0 0 0

GFSSW_con_sbcape_114.txt.gz
CAPE
2 2 5 4 2 1 1 4 0 0 1 1 0 1 3 2 1 0 0 0 0 0 0 0 0 0 0 0 7 30 17 45 63 67 104 152 91 175 13 0 0 0 0 41 236
1 1 1 1 2 1 1 0 0 1 1 0 0 0 3 5 0 0 0 0 0 20 0 0 0 0 0 0 0 73 0 38 40 99 45 336 137 43 21 0 0 0 21 198 407
2 2 2 1 1 2 2 1 0 0 0 0 0 0 2 1 0 0 0 0 0 16 0 0 0 0 0 0 0 5 0 70 55 141 53 303 164 31 37 17 0 13 133 269 288
2 3 1 3 2 1 3 1 1 0 1 1 0 2 1 0 0 0 0 0 0 0 0 0 0 0 0 0 0 0 0 4 18 357 52 188 97 19 34 62 0 32 171 215 186
3 1 3 1 2 1 1 1 2 1 1 0 2 1 0 0 0 0 40 0 0 0 0 0 0 0 0 0 0 0 0 112 326 199 82 173 159 103 1 47 22 130 190 153 120
0 1 1 1 1 0 0 0 0 0 1 0 1 3 0 0 0 0 0 0 0 0 0 0 0 0 0 0 0 0 138 551 299 60 225 109 94 48 45 36 118 144 116 89 85
1 2 5 0 1 0 0 0 0 0 1 0 0 0 0 0 0 0 0 0 0 0 0 0 0 0 0 0 0 209 392 556 460 278 131 46 69 8 131 41 132 126 113 80 105
3 1 1 5 1 0 1 3 2 0 0 1 1 0 0 0 0 0 0 0 0 0 0 0 0 0 0 0 0 207 29 181 342 186 149 47 122 92 90 119 149 150 133 98 86
2 1 0 1 1 0 2 4 2 0 1 0 0 0 0 0 0 0 0 0 0 0 0 0 0 0 0 0 0 0 22 75 209 186 147 49 19 19 130 57 95 141 141 115 6
2 0 1 0 1 0 1 0 0 0 0 0 0 0 0 0 0 0 0 0 0 0 0 0 0 0 0 0 0 0 0 9 0 114 200 83 33 40 53 44 89 108 160 87 26
4 0 0 0 0 0 0 0 0 0 0 0 0 0 0 0 0 0 0 0 0 0 0 0 0 0 0 0 0 0 0 0 321 207 219 49 46 49 47 30 30 61 28 86 84
4 2 0 1 0 0 0 0 0 0 0 0 0 0 0 0 0 0 0 0 0 0 0 0 0 0 0 0 0 0 0 55 269 253 136 110 138 108 95 39 13 96 63 45 70
2 3 3 1 1 0 0 0 0 0 0 0 0 0 0 0 0 0 0 0 0 0 0 0 0 0 0 0 0 0 0 66 244 264 202 210 142 74 102 64 49 103 84 95 118
2 2 2 0 0 0 0 0 0 0 0 0 0 0 0 0 0 0 0 0 0 0 0 0 0 0 0 0 0 0 0 1 294 69 35 17 3 28 121 46 79 33 52 92 131
1 3 0 0 0 0 0 0 0 0 0 0 0 0 0 0 0 0 0 0 0 0 0 0 0 0 0 0 0 0 0 0 243 10 0 0 0 0 90 88 38 16 47 110 53
1 3 0 0 0 0 0 0 0 0 0 0 0 0 0 0 0 0 0 0 0 0 0 0 0 0 0 0 0 112 76 3 0 0 0 0 0 0 47 46 53 21 11 46 90
0 0 1 0 0 0 0 0 0 0 0 0 0 0 0 0 0 0 0 0 0 0 0 0 0 0 0 0 0 31 27 20 36 42 9 0 0 0 0 23 60 11 4 26 148
0 0 0 0 0 0 0 0 0 0 0 0 0 0 0 0 0 0 0 0 0 0 0 0 0 0 0 0 0 16 0 1 0 0 0 7 5 0 5 3 38 21 0 29 131
0 0 0 0 0 0 0 0 0 0 0 0 0 0 0 0 0 0 0 0 0 0 0 0 0 0 0 0 0 0 3 0 0 0 5 8 103 83 10 41 83 50 32 29 118
0 0 0 0 0 0 0 0 0 0 0 0 0 0 0 0 0 0 0 0 0 0 0 0 0 0 0 0 0 0 0 0 0 0 0 13 68 49 103 56 126 93 89 99 121
0 0 0 0 0 0 0 0 0 0 0 0 0 0 0 0 0 0 0 0 0 0 0 0 0 0 0 0 0 0 0 0 0 0 0 0 0 80 66 40 8 7 11 34 148
0 0 0 0 0 0 0 0 0 0 0 0 0 0 0 0 0 0 0 0 0 0 0 0 0 0 0 0 0 0 0 0 0 0 0 0 0 9 85 24 2 1 22 5 10
0 0 0 0 0 0 0 0 0 0 0 0 0 0 0 0 0 0 0 0 0 0 0 0 0 0 0 0 0 0 0 0 0 0 6 0 0 28 33 13 14 15 1 16 1
0 0 0 0 0 0 0 0 0 0 0 0 0 0 0 0 0 0 0 0 0 0 0 0 0 0 0 0 0 0 0 0 0 0 0 0 15 96 23 3 2 58 42 28 16
0 0 0 0 0 0 0 0 0 0 0 0 0 0 0 0 0 0 0 0 0 0 0 0 0 0 0 0 0 0 0 0 0 0 5 7 34 135 16 0 41 64 18 3 0
0 0 0 0 0 0 0 0 0 0 0 0 0 0 0 0 0 0 0 0 0 0 0 0 0 0 0 0 0 0 0 0 148 114 124 47 72 89 0 0 28 74 37 0 0
0 0 0 0 0 0 0 0 0 0 0 0 0 0 0 0 0 0 0 0 0 0 0 0 0 0 0 0 0 0 0 0 0 184 213 149 48 16 0 35 77 87 41 5 0

GFSSW_con_sbcape_117.txt.gz
CAPE
2 1 5 1 1 1 1 0 1 0 1 1 0 1 2 1 0 0 0 0 0 0 0 0 0 0 0 0 162 7 124 71 71 113 114 79 29 36 25 1 7 27 10 76 259
2 5 6 1 1 1 1 1 0 0 0 0 2 1 3 2 0 0 0 0 0 0 0 0 0 0 0 0 0 109 42 102 101 142 110 89 96 30 0 7 35 41 128 182 302
2 4 3 2 2 1 2 2 2 0 0 3 0 1 4 1 0 0 0 0 0 0 0 0 0 0 0 0 0 99 19 122 107 145 64 64 41 0 13 15 20 68 174 274 153
2 4 4 4 2 1 1 1 1 3 0 1 0 2 3 1 0 0 0 0 0 0 0 0 0 0 0 0 0 0 1 91 130 198 103 66 0 0 59 82 0 55 131 102 46
4 3 2 3 1 1 1 1 2 0 1 0 1 0 0 0 0 0 0 0 0 0 0 0 0 0 0 0 0 0 0 14 142 269 87 91 13 11 18 3 32 91 129 118 136
1 2 2 3 2 1 0 0 2 0 2 0 1 0 0 0 0 0 0 0 0 0 0 0 0 0 0 0 0 0 103 471 336 291 139 53 13 43 21 37 117 147 168 252 320
2 3 1 1 1 0 0 0 0 1 0 0 0 0 0 0 0 0 0 0 0 0 0 0 0 0 0 0 7 248 443 599 345 334 207 2 46 53 50 106 188 217 271 293 346
1 1 1 1 0 0 0 1 1 0 0 0 0 0 0 0 0 0 0 0 0 0 0 0 0 0 0 0 2 408 407 612 553 353 240 95 4 7 88 126 151 211 256 286 363
1 1 2 1 0 0 0 0 0 0 2 0 0 0 0 0 0 0 0 0 0 0 0 0 0 0 0 0 66 0 254 275 703 393 209 153 226 141 127 114 145 138 222 270 371
2 1 1 1 0 0 0 0 3 1 0 0 0 0 0 0 0 0 0 0 0 0 0 0 0 0 0 0 5 135 0 21 189 483 332 198 219 255 208 102 140 179 213 289 346
4 3 1 1 1 0 0 0 0 0 0 0 0 0 0 0 0 0 0 0 0 0 0 0 0 0 0 0 0 0 0 0 343 452 426 275 273 305 305 153 157 165 98 298 269
3 5 0 2 0 0 0 0 0 0 0 0 0 0 0 0 0 0 0 0 0 0 0 0 0 0 0 0 0 0 0 387 485 470 401 323 265 273 303 223 183 115 71 164 219
3 4 2 0 0 0 0 0 0 0 0 0 0 0 0 0 0 0 0 0 0 0 0 0 0 0 0 0 0 0 0 271 348 501 399 367 419 320 268 195 101 87 102 103 172
2 4 1 0 0 0 0 0 0 0 0 0 0 0 0 0 0 0 0 0 0 0 0 0 0 0 0 0 0 0 0 10 513 256 91 220 97 277 263 254 107 110 114 80 174
2 0 0 1 0 0 0 0 0 0 0 0 0 0 0 0 0 0 0 0 0 0 0 0 0 0 0 0 0 0 0 0 54 177 88 221 63 55 155 319 195 101 123 114 97
2 1 0 0 0 0 0 0 0 0 0 0 0 0 0 0 0 0 0 0 0 0 0 0 0 0 0 0 0 47 4 69 149 122 0 24 36 63 231 350 300 228 151 175 121
0 0 0 0 0 0 0 0 0 0 0 0 0 0 0 0 0 0 0 0 0 0 0 0 0 0 0 0 0 207 47 154 152 82 4 17 39 49 99 87 340 310 169 185 151
0 0 0 0 0 0 0 0 0 0 0 0 0 0 0 0 0 0 0 0 0 0 0 0 0 0 0 0 0 19 0 0 0 26 5 100 93 85 120 84 111 327 250 138 142
0 0 0 0 0 0 0 1 0 0 0 0 0 0 0 0 0 0 0 0 0 0 0 0 0 0 0 0 0 0 0 0 25 0 68 147 146 266 153 197 179 310 190 99 223
0 0 0 0 0 0 0 0 0 0 2 0 0 0 0 0 0 0 0 0 0 0 0 0 0 0 0 0 0 0 0 0 10 60 1 145 222 243 204 283 355 311 246 115 227
0 0 0 0 0 0 0 0 0 0 0 0 0 0 0 0 0 0 0 0 0 0 0 0 0 0 0 0 0 0 0 0 5 0 6 71 227 426 405 279 452 326 217 213 236
0 0 0 0 0 0 0 0 0 0 0 0 0 0 0 0 0 1 0 0 0 0 0 0 0 0 0 0 0 0 0 0 20 0 4 83 41 198 318 287 283 279 320 309 255
0 0 0 0 0 0 0 0 0 0 0 0 0 0 0 0 3 1 0 0 0 0 0 0 0 0 0 0 0 0 0 0 0 70 137 6 22 240 397 261 153 146 244 350 352
0 0 0 0 0 0 0 0 0 0 0 0 0 0 0 0 0 2 0 0 0 0 0 0 0 9 0 6 0 0 0 0 0 48 115 53 251 316 378 391 159 194 212 138 127
0 0 0 0 0 0 0 0 0 0 0 0 0 0 0 0 1 0 0 0 0 2 0 0 27 0 0 0 0 0 0 57 0 0 90 156 351 465 441 327 212 303 212 76 16
0 0 0 0 0 0 0 0 0 0 0 0 0 0 0 0 0 0 0 0 0 0 0 0 9 0 0 0 0 0 0 14 94 85 148 152 384 365 608 356 269 229 94 125 57
0 0 0 0 0 0 0 0 0 0 0 0 0 0 0 0 0 0 0 0 0 0 0 1 7 24 6 0 4 2 0 0 146 285 337 331 331 423 495 346 292 190 149 86 15

GFSSW_con_sbcape_120.txt.gz
CAPE
6 8 6 2 1 1 2 1 1 2 1 1 1 1 1 1 0 0 0 0 0 0 0 0 0 0 155 17 225 118 422 237 386 307 390 172 64 152 128 150 36 77 3 282 476
6 8 9 8 1 1 1 1 1 2 2 1 1 1 1 1 0 0 0 0 0 0 0 0 0 0 0 6 28 431 384 59 191 286 220 200 142 129 100 149 128 17 115 246 242
5 6 7 7 2 1 1 1 1 4 1 2 3 1 0 0 0 0 0 0 0 0 0 0 0 0 0 0 94 205 218 15 7 163 246 51 52 108 103 71 115 100 148 141 163
6 5 5 3 1 3 2 2 1 0 1 2 2 1 0 0 0 0 0 0 0 0 0 0 0 0 0 24 0 169 95 160 66 239 271 181 59 112 145 121 0 11 71 104 88
5 5 7 1 3 3 2 2 1 0 2 1 2 0 0 0 0 0 0 0 0 0 0 0 0 0 2 18 0 84 189 193 299 177 170 45 4 65 76 0 0 1 49 80 30
2 4 4 2 3 2 1 0 1 0 0 2 1 0 0 0 0 0 0 0 0 0 0 0 0 0 0 0 11 0 11 158 391 147 246 33 41 0 20 12 0 37 61 73 81
1 2 5 2 2 1 1 0 0 1 1 2 0 0 0 0 0 0 0 0 0 0 0 0 0 0 0 0 0 0 233 457 571 325 198 15 0 13 44 36 78 75 105 126 203
2 2 2 1 1 1 1 1 2 0 0 0 0 0 0 0 0 0 0 0 0 0 0 0 0 0 0 0 135 125 234 448 648 411 7 6 81 69 158 94 101 115 215 289 345
3 2 1 1 1 0 0 0 1 1 0 0 0 0 0 0 0 0 0 0 0 0 0 0 0 0 0 9 187 246 268 438 685 574 214 32 29 42 182 140 247 296 307 343 430
0 2 0 0 0 0 0 0 0 0 0 0 0 0 0 0 0 0 0 0 0 0 0 0 0 0 0 3 301 213 260 408 552 811 555 377 272 90 192 187 186 246 320 407 454
2 2 1 1 0 0 0 0 0 0 0 0 0 0 0 0 0 0 0 0 0 0 0 0 0 0 20 0 0 197 124 210 514 673 551 315 333 197 191 147 84 151 256 380 390
0 2 1 1 0 0 0 0 0 0 0 0 0 0 0 0 0 0 0 0 0 0 0 0 0 1 25 0 0 0 6 270 465 748 713 350 331 667 547 101 0 96 112 339 352
0 2 1 1 0 0 0 0 0 0 0 0 0 0 0 0 0 0 0 0 0 0 0 0 0 0 0 0 0 0 0 311 283 580 570 583 521 612 606 553 91 86 79 134 335
2 0 1 0 0 0 0 0 0 0 0 0 0 0 0 0 0 0 0 0 0 0 0 0 0 0 0 0 0 35 0 148 489 334 270 553 414 605 688 651 247 199 115 52 167
5 1 0 0 0 0 0 0 0 0 3 0 0 0 0 0 0 0 0 0 0 0 0 0 0 0 0 0 0 6 0 0 2 5 23 240 137 464 706 613 571 490 104 113 82
1 2 0 0 0 0 0 0 0 2 3 0 0 0 0 0 0 0 0 0 0 0 0 0 0 0 0 0 0 0 0 0 0 3 1 24 82 490 537 572 533 450 429 241 99
0 0 0 0 0 0 0 0 39 49 0 0 1 0 27 1 0 0 0 0 0 0 0 0 0 0 0 0 0 0 1 61 32 36 10 60 52 108 374 394 434 770 548 392 171
0 0 0 0 0 0 0 48 43 6 8 0 0 26 35 1 2 2 0 0 0 0 0 0 0 0 0 0 0 0 37 71 93 91 86 184 50 145 309 421 548 778 670 614 453
0 0 0 0 0 0 11 57 50 44 31 0 0 70 54 0 0 0 1 0 0 0 0 0 0 0 0 0 0 0 0 6 60 84 127 309 142 714 534 472 468 573 788 579 609
0 0 0 0 0 0 81 0 34 32 43 22 57 43 98 50 14 24 0 3 0 0 0 0 5 0 0 0 0 0 0 0 1 118 90 174 163 196 831 591 678 725 869 829 614
0 0 0 0 0 69 43 3 1 9 15 46 60 37 61 50 60 62 28 0 0 0 0 0 10 4 0 0 0 0 0 0 4 7 93 120 174 777 776 718 906 826 907 938 823
0 0 0 0 0 0 1 0 0 0 0 8 30 61 72 62 85 68 46 32 0 0 0 0 27 88 36 0 0 0 0 0 8 36 46 90 339 788 911 739 968 931 971 911 821
0 0 0 0 14 1 0 0 0 0 0 0 1 23 33 49 104 99 80 10 0 0 9 16 23 76 45 1 0 0 0 0 10 36 79 60 44 921 896 837 971 993 817 828 714
0 0 0 0 0 0 0 0 0 0 0 0 0 10 34 31 59 100 64 1 0 3 0 3 68 47 77 90 55 1 0 0 0 17 38 89 166 934 1037 961 905 818 566 702 722
0 0 1 2 0 0 0 0 0 0 0 0 0 0 0 16 27 49 29 5 0 1 0 19 65 53 12 0 0 1 0 0 15 9 59 61 87 117 987 1112 944 612 479 463 634
26 12 0 0 0 0 0 0 0 0 0 0 0 0 0 0 6 49 29 19 4 0 0 0 34 31 22 0 1 0 0 5 23 53 67 95 165 718 1081 1138 750 751 549 638 545
0 13 50 0 0 0 0 0 0 0 0 0 0 0 0 0 0 0 0 0 0 18 0 1 2 32 65 19 22 27 7 5 91 244 258 310 779 896 1158 825 755 667 646 558 434

GFSSW_con_sbcape_123.txt.gz
CAPE
7 10 9 2 1 1 1 1 1 2 2 2 1 0 0 0 0 0 0 0 0 0 0 0 0 0 569 245 221 177 934 628 230 257 399 472 412 434 372 265 202 182 113 237 235
6 9 6 2 2 2 1 1 2 3 1 2 1 0 1 0 0 0 0 0 0 0 0 0 0 11 718 334 295 488 875 577 645 350 384 254 309 317 320 309 187 78 182 203 262
6 5 5 6 1 1 3 1 1 1 1 2 2 0 0 0 0 0 0 0 0 0 0 0 0 72 135 164 201 480 551 176 77 457 328 144 270 193 151 190 112 258 176 205 137
4 7 4 1 2 3 2 1 3 2 1 2 1 0 0 0 0 0 0 0 0 0 0 0 0 0 2 80 217 188 24 62 50 254 123 110 71 130 205 94 97 155 86 99 76
5 3 5 4 3 1 2 1 1 1 1 2 1 0 0 0 0 0 0 0 0 0 0 0 0 0 4 236 368 244 278 133 113 282 374 117 249 149 55 39 42 18 10 53 55
3 4 7 3 2 2 2 1 1 2 1 1 0 0 0 0 0 0 0 0 0 0 0 0 0 0 0 220 184 259 423 263 514 319 80 46 5 0 69 49 5 3 9 39 39
2 3 3 1 1 1 1 2 2 1 1 1 0 0 0 0 0 0 0 0 0 0 0 0 0 0 77 229 68 126 327 556 425 527 226 70 44 0 24 38 8 31 61 61 34
2 3 4 3 1 1 1 1 2 1 0 0 0 0 0 0 0 0 0 0 0 0 0 0 0 0 17 114 34 67 342 624 671 635 236 102 74 6 17 87 65 79 88 83 123
1 0 2 2 1 1 1 1 2 1 0 0 0 0 0 0 0 0 0 0 0 0 0 0 0 0 56 27 353 255 253 393 844 586 361 85 108 71 2 94 84 99 105 97 203
0 0 1 2 2 0 0 0 0 0 0 0 0 0 0 0 0 0 0 0 0 0 0 0 0 0 65 62 260 282 235 432 743 729 357 216 60 81 184 45 135 138 123 140 133
0 0 2 2 1 0 0 0 0 0 0 0 0 0 0 0 0 0 0 0 0 0 0 0 0 4 50 100 17 36 81 159 337 952 574 311 279 222 198 220 221 204 235 168 121
0 3 3 1 1 0 0 0 0 0 0 0 0 0 0 0 0 0 0 0 0 0 0 0 0 0 50 71 2 22 165 224 406 736 549 374 251 221 259 183 115 63 56 160 194
0 2 0 1 0 0 0 0 0 0 0 0 0 0 0 0 0 0 0 0 0 0 0 0 0 0 53 58 0 14 71 167 320 592 507 411 544 308 167 182 1 24 73 106 265
3 1 1 0 0 0 0 0 0 0 5 0 0 0 0 0 0 0 0 0 0 0 0 0 0 21 18 15 4 28 1 26 8 464 356 576 520 646 435 316 42 0 68 101 101
1 0 1 0 0 0 0 0 0 0 44 1 2 0 1 0 0 0 0 0 0 0 0 0 0 0 7 6 20 6 1 13 195 288 156 238 159 157 830 713 369 91 29 144 12
1 1 0 0 0 0 0 0 0 9 23 5 8 13 1 34 0 0 0 0 0 0 0 35 8 0 4 1 0 4 0 0 3 68 56 187 171 309 965 950 851 290 75 40 0
0 0 0 0 0 0 0 0 55 34 11 0 33 47 73 55 42 0 0 0 0 0 0 10 0 0 0 0 0 0 1 41 52 92 81 62 107 631 223 597 973 596 426 83 5
0 0 0 0 0 0 0 37 113 16 70 31 61 70 63 63 26 0 0 0 4 0 13 32 0 0 0 0 0 0 25 150 188 167 156 161 134 584 508 462 660 969 679 417 35
0 0 0 0 0 0 5 74 41 91 36 33 36 95 55 34 53 77 36 56 2 0 29 37 38 0 0 0 0 0 1 62 40 16 68 25 262 622 403 600 585 593 950 787 388
0 0 0 0 0 0 75 0 32 43 32 34 37 79 75 54 68 83 90 65 3 0 2 35 55 1 0 0 0 0 5 5 14 69 122 216 365 10 425 430 559 643 1031 811 882
0 0 0 0 0 38 53 35 31 15 28 52 76 76 33 56 37 75 59 29 19 0 0 28 18 14 0 0 0 0 0 1 29 46 69 135 463 516 652 570 723 765 823 968 899
0 0 0 0 26 99 53 16 3 30 15 10 43 65 45 39 72 53 45 58 0 2 0 2 44 86 26 0 0 13 0 1 22 19 9 9 143 128 320 688 762 822 1032 1059 1017
11 0 0 0 72 36 0 0 0 15 10 26 26 58 52 45 89 27 62 25 0 10 103 40 48 146 42 27 0 0 17 11 1 32 52 109 369 987 821 730 949 1004 1093 1280 1404
7 0 0 11 40 36 19 8 0 0 0 0 0 30 61 73 49 50 50 2 3 4 10 0 31 114 3 37 29 4 0 7 30 74 61 67 791 807 769 1008 1298 1208 1327 1211 1402
13 21 15 14 29 59 36 0 0 0 0 0 0 10 65 86 72 88 56 33 27 0 18 0 55 72 10 3 0 14 35 11 3 1 45 38 104 192 499 1010 1229 1457 1426 1312 1014
70 23 1 63 0 40 7 8 0 0 0 0 0 0 4 57 78 79 68 69 50 13 16 6 6 3 1 10 4 2 9 28 40 35 18 19 30 246 612 1276 1359 976 958 1109 1234
30 45 108 1 21 65 37 0 0 0 0 0 0 0 0 0 0 0 3 45 46 37 94 18 18 49 8 8 31 24 4 29 50 115 114 109 924 774 578 1694 1479 1034 832 984 897

GFSSW_con_sbcape_126.txt.gz
CAPE
3 7 3 1 1 2 0 1 1 2 1 1 1 1 0 0 0 0 0 0 0 0 0 0 0 0 160 320 408 523 201 253 130 131 146 220 318 182 162 127 121 98 56 69 78
4 2 3 5 1 4 4 1 2 3 2 1 1 1 1 0 0 0 0 0 0 0 0 0 0 0 65 437 248 464 64 80 21 239 389 302 278 284 80 100 91 91 34 55 84
2 7 1 1 1 1 1 1 2 2 2 1 0 0 0 0 0 0 0 0 0 0 0 0 0 0 117 451 338 270 1 7 20 199 210 261 218 256 178 76 73 103 43 101 74
3 3 4 4 3 2 1 2 2 0 0 0 0 0 0 0 0 0 0 0 0 0 0 0 0 0 69 60 170 264 502 45 291 232 189 216 112 161 91 94 94 50 42 58 61
1 3 2 1 1 2 1 2 2 1 1 0 0 0 0 0 0 0 0 0 0 0 0 0 0 0 0 95 210 179 135 81 250 283 99 249 240 134 75 68 39 11 39 34 65
3 1 3 2 2 1 1 1 0 0 0 0 0 0 0 0 0 0 0 0 0 0 0 0 0 0 0 35 117 297 221 296 421 193 284 106 1 39 54 71 21 21 27 35 62
1 2 1 2 1 1 0 0 0 0 1 2 1 0 0 0 0 0 0 0 0 0 0 0 0 0 0 67 122 225 367 576 428 115 32 30 9 0 25 63 40 35 30 53 66
0 0 1 2 0 0 0 0 0 1 1 0 0 0 0 0 0 0 0 0 0 0 0 0 0 0 0 3 61 144 282 451 439 379 93 21 10 0 2 76 46 52 48 52 71
1 1 1 1 0 0 0 0 1 1 0 0 0 0 0 0 0 0 0 0 0 0 0 0 0 0 0 27 68 54 429 390 680 478 211 166 23 0 4 9 67 72 76 66 77
1 1 1 0 0 0 0 0 0 0 0 0 0 0 0 0 0 0 0 0 0 0 0 0 0 0 0 102 97 188 176 269 553 545 389 112 83 0 0 1 58 66 80 78 75
0 0 2 4 2 0 0 0 0 0 0 0 0 0 0 0 0 0 0 0 0 0 0 0 0 0 1 107 100 205 61 27 252 175 469 269 86 7 9 34 188 121 72 120 81
0 1 1 1 2 0 0 0 0 0 0 0 0 0 0 0 0 0 0 0 0 0 0 0 0 0 14 138 60 20 29 127 36 17 441 314 152 31 89 250 277 267 271 242 134
0 3 2 0 1 0 0 0 0 0 0 0 0 0 0 0 0 0 0 0 0 0 0 0 0 0 0 35 14 38 21 202 2 37 140 385 314 341 107 211 175 117 24 6 231
3 1 1 1 0 0 0 0 0 0 0 0 0 0 0 0 0 0 0 0 0 0 0 0 0 0 0 5 103 13 74 174 12 10 85 504 337 237 212 73 166 81 0 22 212
1 0 0 2 0 0 0 0 0 0 45 0 0 1 0 0 2 0 0 0 0 0 0 0 0 0 0 6 34 10 1 55 38 91 115 520 302 238 384 130 70 10 16 7 222
2 0 1 0 0 0 0 0 0 22 9 19 6 14 28 0 1 0 0 0 0 0 0 0 0 0 25 11 0 7 1 42 8 25 171 267 339 37 642 401 300 109 8 0 128
0 0 2 0 0 0 0 0 34 73 6 2 7 43 27 56 28 0 0 0 0 0 0 0 30 6 0 0 0 0 3 7 8 166 141 167 182 142 250 632 727 330 256 60 164
0 0 0 0 0 0 0 0 22 155 23 37 47 35 6 71 48 0 0 0 3 0 0 3 1 0 0 0 6 0 0 25 131 123 91 152 248 316 524 124 498 867 591 136 163
0 0 0 0 0 0 0 106 30 30 13 2 49 0 2 20 34 0 0 0 0 2 5 12 19 0 0 0 0 5 0 0 0 0 1 76 162 509 71 33 414 905 760 205 244
0 0 0 0 0 0 3 19 61 0 7 40 18 59 57 45 24 64 35 7 8 0 0 10 26 6 0 0 0 0 0 0 0 9 47 70 132 280 358 27 634 1045 707 660 278
0 0 0 0 0 1 77 9 7 0 0 25 27 12 25 48 72 87 38 50 5 0 0 0 1 8 0 0 0 0 0 0 0 2 23 116 459 400 39 35 45 206 1011 902 358
0 7 0 0 1 51 38 8 0 4 0 1 21 30 10 43 90 77 0 41 7 0 0 0 1 49 11 0 0 0 0 0 0 0 0 1 32 252 11 3 15 152 940 1224 848
0 0 0 0 16 20 0 0 0 6 6 20 14 0 20 41 88 29 3 0 0 3 0 5 7 56 82 30 0 0 0 1 0 2 72 9 435 334 3 3 311 644 1059 1474 1345
1 0 0 1 21 42 0 3 0 0 0 0 0 1 0 18 125 94 40 0 0 0 121 0 35 50 0 89 62 46 1 2 3 1 0 8 657 609 284 301 472 838 1773 1519 1470
0 24 0 8 32 3 9 0 0 0 0 0 0 1 30 135 122 115 52 12 0 0 0 0 11 20 1 6 2 16 7 0 0 0 36 36 1 14 597 46 0 694 1729 1517 1492
43 85 12 40 10 28 1 7 0 0 1 0 3 0 0 9 84 96 25 22 10 3 0 0 0 0 2 0 0 4 8 14 18 0 0 0 0 711 13 1 0 0 1178 1181 1117
33 62 28 1 6 31 13 0 0 1 0 0 0 0 2 0 0 0 0 0 77 43 40 2 0 15 3 0 1 4 9 3 5 12 60 356 652 603 0 0 0 141 1096 1500 1303

GFSSW_con_sbcape_129.txt.gz
CAPE
2 0 1 7 1 2 0 1 2 1 1 1 1 1 2 2 0 0 0 0 0 0 0 0 0 0 0 161 202 27 38 86 55 162 247 252 190 132 89 37 22 37 0 10 43
4 2 0 1 0 1 1 2 2 1 1 0 1 2 1 0 0 0 0 0 0 0 0 0 0 0 0 185 416 169 1 4 6 56 289 213 40 210 70 27 34 23 18 85 139
3 5 3 4 3 4 2 2 4 2 1 1 1 1 0 0 0 0 0 0 0 0 0 0 0 0 0 144 258 1 38 1 0 55 202 291 74 199 42 16 16 11 0 28 35
3 3 6 0 1 2 3 1 1 0 1 1 1 1 0 0 0 0 0 0 0 0 0 0 0 0 0 86 200 81 3 0 25 122 430 296 203 87 114 24 26 21 14 9 28
2 3 4 2 3 3 1 0 2 0 0 1 1 1 0 0 0 0 0 0 0 0 0 0 0 0 0 12 103 3 0 0 214 267 300 100 26 77 80 35 43 32 22 14 29
1 2 2 5 2 2 1 0 0 0 0 1 1 0 0 0 0 0 0 0 0 0 0 0 0 0 0 75 292 176 64 84 303 273 256 73 3 75 38 17 33 26 12 14 19
3 2 3 3 2 1 1 0 0 0 1 1 1 0 0 0 0 0 0 0 0 0 0 0 0 0 0 27 131 227 272 261 350 176 71 42 1 19 0 11 0 0 9 31 37
1 1 2 1 2 1 0 0 0 1 1 2 0 0 0 0 0 0 0 0 0 0 0 0 0 0 0 0 9 219 120 241 229 268 103 64 4 17 0 6 0 6 21 28 37
0 0 0 2 1 0 0 0 0 3 1 0 0 0 0 0 0 0 0 0 0 0 0 0 0 0 0 0 2 9 159 195 420 353 117 117 5 5 11 4 10 26 32 44 59
0 0 1 2 4 0 0 0 0 0 0 0 0 0 0 0 0 0 0 0 0 0 0 0 0 0 0 0 2 2 226 140 303 446 132 128 44 2 0 1 30 85 30 37 38
0 1 2 1 2 0 0 0 0 0 0 0 0 0 0 0 0 0 0 0 0 0 0 0 0 0 0 0 0 98 118 299 57 33 431 197 3 0 0 46 86 132 42 52 55
0 4 3 4 0 0 0 0 0 0 0 0 0 0 0 0 0 0 0 0 0 0 0 0 0 0 0 0 15 89 81 208 6 0 158 185 77 0 3 53 126 119 66 92 100
1 0 0 0 2 0 0 0 0 0 0 0 0 0 0 0 0 0 0 0 0 0 0 0 0 0 0 0 18 1 6 88 155 15 81 132 119 26 12 266 194 119 42 31 125
3 0 0 1 0 0 0 0 0 0 0 0 0 0 0 0 0 0 0 0 0 0 0 0 0 0 0 0 21 256 147 133 43 15 1 10 64 113 60 103 182 85 0 45 8
1 0 0 0 0 0 0 0 0 0 2 0 0 0 0 0 0 0 0 0 0 0 0 0 0 0 0 0 44 133 131 70 17 2 0 1 58 119 168 106 39 55 0 0 4
2 0 1 0 0 0 0 0 0 0 13 0 0 4 7 0 0 0 0 0 0 0 0 0 0 0 0 0 41 31 279 268 185 67 28 69 84 82 202 152 40 78 0 0 0
0 0 2 0 0 0 0 0 0 0 1 12 0 2 19 11 4 0 0 0 0 0 0 0 0 0 0 14 0 0 12 5 26 44 42 32 231 118 123 217 99 111 33 0 0
0 0 0 0 0 0 0 0 10 42 57 17 3 49 40 0 7 3 0 0 0 0 0 0 0 1 0 0 0 0 0 0 18 0 0 0 181 165 49 202 223 58 27 4 0
0 0 0 0 0 0 0 0 14 20 9 38 17 13 2 0 8 10 0 0 0 0 0 0 0 10 0 0 0 0 0 0 0 0 0 50 396 459 355 43 0 0 194 23 0
0 0 0 0 0 0 0 0 5 19 1 21 0 18 0 1 4 25 6 8 1 0 0 0 0 0 0 0 0 0 0 0 0 0 0 45 325 178 55 294 41 0 0 124 5
0 0 0 0 0 0 0 6 20 0 0 3 17 2 2 6 3 16 10 7 49 7 0 0 0 6 0 0 0 0 0 0 0 0 1 80 34 498 258 226 4 0 0 0 78
0 0 0 0 0 0 24 2 0 0 0 2 2 9 2 9 17 0 5 0 0 0 0 0 0 0 2 5 0 0 0 0 0 0 0 0 344 244 165 180 5 0 9 166 88
0 0 0 0 0 3 31 1 0 0 0 0 9 6 0 17 80 28 29 40 0 0 0 0 0 0 20 23 12 0 0 0 0 0 0 0 231 76 75 60 27 26 53 39 404
0 0 0 0 0 0 27 1 0 0 0 0 0 0 39 20 33 37 8 0 0 0 525 0 5 19 0 5 3 7 0 0 0 0 0 435 516 129 264 113 0 4 3 81 43
0 5 54 3 4 21 2 0 0 0 0 0 0 0 9 67 0 13 6 7 0 0 0 0 0 0 0 5 0 0 0 0 0 0 9 107 256 180 168 99 0 0 109 335 340
0 2 18 74 33 35 0 0 0 0 0 0 0 1 63 29 30 0 0 4 0 0 0 0 0 0 0 0 0 0 0 0 0 0 438 571 174 122 89 0 0 0 0 0 259
9 60 46 83 17 15 15 20 0 0 0 0 0 0 0 0 0 0 0 0 1 15 0 0 6 0 0 1 0 0 9 3 0 169 306 220 269 6 0 0 0 0 0 147 485

GFSSW_con_sbcape_132.txt.gz
CAPE
6 0 0 1 1 1 1 2 2 1 2 2 1 2 2 1 0 0 0 0 0 0 5 0 0 0 0 0 127 23 52 95 74 172 212 286 119 14 11 25 5 17 149 139 123
3 4 1 1 3 3 3 3 1 2 2 2 2 2 1 1 0 0 0 0 0 0 0 0 0 0 0 0 286 34 13 57 14 96 100 251 89 16 21 17 1 78 117 36 18
1 3 1 1 1 3 3 2 2 2 2 3 2 1 0 0 0 0 0 0 0 0 0 0 0 0 0 83 76 3 9 43 25 78 20 226 121 38 28 18 1 15 47 69 107
2 3 5 1 3 4 4 3 2 1 1 2 2 1 0 0 0 0 0 0 0 0 0 0 0 0 0 41 29 0 0 0 18 41 224 273 159 103 67 14 9 17 35 62 98
4 2 3 5 5 3 3 2 1 1 0 1 2 0 0 0 0 0 27 0 0 0 0 0 0 0 0 3 2 4 45 1 5 14 164 185 75 75 19 7 13 20 56 45 184
3 2 1 3 4 3 2 1 0 0 1 3 3 0 0 0 0 0 0 0 0 0 0 0 0 0 0 20 324 155 10 0 60 87 300 79 44 19 28 8 19 0 5 12 173
2 2 2 3 3 3 2 0 0 1 2 2 2 0 0 0 0 0 0 0 0 0 0 0 0 0 0 0 198 14 0 101 38 267 41 7 43 36 21 7 19 0 0 38 84
1 1 1 3 3 2 0 0 0 2 2 1 0 0 0 0 0 0 0 0 0 0 0 0 0 0 0 0 322 315 206 140 239 221 44 55 1 5 0 6 13 0 1 47 47
1 0 1 2 0 2 1 0 0 1 1 0 0 0 0 0 0 0 0 0 0 0 0 0 0 0 0 0 0 164 101 29 252 329 99 100 3 7 4 9 34 5 7 36 28
1 1 4 5 2 0 0 0 0 0 0 0 0 0 0 0 0 0 0 0 0 0 0 0 0 0 0 0 0 11 13 8 122 277 117 97 42 16 1 10 35 68 20 43 44
1 3 0 0 1 1 0 0 0 0 0 0 0 0 0 0 0 0 0 0 0 0 0 0 0 0 0 0 0 0 76 215 69 2 393 115 47 22 1 18 85 94 5 35 52
2 0 0 0 0 0 0 0 0 0 0 0 0 0 0 0 0 0 0 0 0 0 0 0 0 0 0 0 0 13 111 75 47 109 153 115 87 13 1 20 132 116 6 29 9
2 0 0 1 1 0 0 0 0 0 0 0 0 0 0 0 0 0 0 0 0 0 0 0 0 0 0 0 0 85 77 153 156 219 140 193 95 13 18 198 234 90 70 58 18
3 2 1 1 0 0 0 0 0 0 0 0 0 0 0 0 0 0 0 0 0 0 0 0 0 0 0 0 0 190 224 305 184 64 32 2 3 40 54 36 242 94 44 64 72
0 2 0 0 0 0 0 0 0 0 0 0 0 0 0 0 0 0 0 0 0 0 0 0 0 0 0 0 27 416 331 207 82 0 0 0 0 0 19 24 16 91 17 46 75
0 2 0 0 1 0 0 0 0 0 0 0 0 0 0 0 0 0 0 0 0 0 0 0 0 0 0 0 145 300 153 154 46 14 1 0 0 0 4 10 12 76 28 0 36
0 0 0 0 0 0 0 0 0 0 0 1 0 0 0 0 0 0 0 0 0 0 0 0 0 0 0 109 125 294 129 0 12 4 0 4 1 8 22 66 51 51 103 2 23
0 0 0 0 0 0 0 0 0 3 0 0 1 0 6 2 0 0 0 0 0 0 0 0 0 0 0 0 23 45 0 0 4 0 0 0 102 154 76 89 104 43 53 0 9
0 0 0 0 0 0 0 0 0 0 0 0 0 0 0 3 31 0 0 0 0 0 0 0 0 0 0 0 0 0 0 0 0 0 0 32 172 302 154 207 117 39 41 0 0
0 0 0 0 0 0 0 0 0 0 1 0 3 9 0 0 0 0 1 4 0 0 0 0 18 0 0 0 0 0 0 0 0 0 0 38 240 89 264 188 265 120 55 11 0
0 0 0 0 0 0 0 0 0 0 1 0 0 0 0 0 8 6 31 42 35 3 0 0 0 0 0 0 0 0 0 0 0 0 0 40 110 334 73 110 13 0 0 18 42
0 0 0 0 0 0 0 0 0 0 0 0 0 0 0 20 46 18 18 12 7 0 0 0 0 0 0 0 0 0 0 0 0 0 0 0 151 46 117 26 68 0 0 0 29
0 0 0 0 0 0 0 0 0 0 0 0 0 0 0 0 37 8 30 8 0 0 0 0 0 0 1 0 0 1 0 0 0 0 0 0 217 2 27 14 8 0 15 0 151
0 0 0 0 0 0 0 0 0 0 0 0 0 0 0 0 0 0 0 0 0 0 743 0 0 0 0 0 0 0 0 0 0 0 15 72 210 63 90 8 31 18 93 336 38
0 0 0 3 7 0 0 0 0 0 0 0 0 0 2 7 0 0 0 0 0 23 0 0 0 0 0 0 0 1 0 6 1 15 0 299 168 198 51 13 9 11 154 434 95
0 0 0 0 0 0 0 0 0 0 0 0 0 0 0 0 0 0 0 0 0 0 0 0 0 0 0 0 0 0 53 152 97 502 346 129 102 49 0 0 0 0 0 177 243
0 0 0 0 33 0 0 0 0 0 0 0 0 0 0 0 0 0 0 0 0 0 0 0 0 0 0 0 0 91 23 200 704 850 182 251 12 0 0 0 0 2 92 54 59

GFSSW_con_sbcape_135.txt.gz
CAPE
1 2 1 0 3 3 4 2 1 4 2 3 2 4 4 3 0 0 0 0 0 0 0 0 0 0 0 0 170 27 62 74 41 127 256 298 41 29 45 133 98 197 120 199 482
2 1 5 0 5 2 1 6 4 4 4 4 3 3 2 3 0 0 0 0 0 0 0 0 0 0 0 0 140 27 9 59 7 20 174 312 17 17 71 118 177 146 242 422 432
1 3 1 1 1 0 0 5 6 5 4 4 3 2 1 0 0 0 0 0 0 0 0 0 0 0 0 70 66 11 46 80 111 126 33 286 25 3 41 156 105 143 177 237 192
3 2 2 4 1 0 0 0 4 3 2 2 2 2 0 0 0 0 0 0 0 0 0 0 0 0 1 16 49 2 20 17 38 56 64 155 323 19 72 44 117 96 76 100 155
2 4 5 2 1 0 1 3 2 1 1 2 2 1 0 0 0 0 6 0 0 0 0 0 0 0 0 55 35 1 3 10 14 35 60 106 246 85 113 61 73 0 19 43 75
3 3 4 2 0 0 2 2 0 2 2 2 0 0 0 0 0 0 0 0 0 0 0 0 0 0 0 6 34 53 45 22 14 3 41 199 141 43 44 70 57 13 30 84 134
1 1 2 4 2 0 2 1 1 2 2 1 0 0 0 0 0 0 0 0 0 0 0 0 0 0 0 6 138 13 1 26 32 22 89 33 44 9 36 63 70 87 43 96 217
1 1 2 3 4 2 1 2 1 0 1 0 0 0 0 0 0 0 0 0 0 0 0 0 0 0 0 0 50 86 41 61 27 112 81 35 1 10 3 19 57 75 55 140 177
1 3 0 0 1 3 2 1 1 2 1 0 0 0 0 0 0 0 0 0 0 0 0 0 0 0 0 0 47 83 71 43 100 206 23 67 24 5 4 7 0 6 26 109 81
5 1 0 0 0 0 1 0 0 0 0 0 0 0 0 0 0 0 0 0 0 0 0 0 0 0 0 0 0 91 0 2 76 122 100 105 35 1 0 9 6 1 22 57 36
4 0 0 0 0 0 0 0 0 0 0 0 0 0 0 0 0 0 0 0 0 0 0 0 0 0 0 0 0 91 46 32 99 73 124 165 12 0 1 51 100 2 16 11 64
3 2 0 0 0 0 0 0 0 0 0 0 0 0 0 0 0 0 0 0 0 0 0 0 0 0 0 0 0 0 0 98 109 88 75 6 39 11 0 13 112 41 33 41 16
2 2 3 1 0 0 0 0 0 0 0 0 0 0 0 0 0 0 0 0 0 0 0 0 0 0 0 0 0 0 9 125 161 184 177 72 22 43 11 110 190 75 40 50 21
4 4 2 0 0 0 0 0 0 0 0 0 0 0 0 0 0 0 0 0 0 0 0 0 0 0 0 0 0 0 118 179 188 70 67 10 74 23 7 5 97 53 66 52 26
3 4 0 1 0 0 0 0 0 0 0 0 0 0 0 0 0 0 0 0 0 0 0 0 0 0 0 0 0 90 298 281 19 0 0 0 0 1 0 1 13 96 64 105 17
1 3 0 0 0 0 0 0 0 0 0 0 0 0 0 0 0 0 0 0 0 0 0 0 0 0 0 0 0 226 69 13 0 0 0 0 0 0 0 0 4 93 56 62 63
0 0 1 0 0 0 0 0 0 0 0 0 0 0 0 0 0 0 0 0 0 0 0 0 0 0 1 259 257 218 41 0 13 0 0 0 0 0 0 1 2 13 80 10 64
0 0 0 0 0 0 0 0 0 0 0 0 0 0 0 0 0 0 0 0 0 0 0 0 0 0 1 334 289 51 0 8 9 0 0 0 0 10 42 76 31 3 86 25 33
0 0 0 0 0 0 0 0 0 0 0 0 0 0 0 0 0 0 0 0 0 0 0 0 1 0 0 44 133 8 14 0 0 0 0 0 39 174 145 182 73 9 64 26 9
0 0 0 0 0 0 0 0 0 0 0 0 0 0 0 0 0 0 0 0 6 0 0 0 6 0 0 0 1 72 0 0 0 0 0 2 81 0 11 155 188 79 61 51 11
0 0 0 0 0 0 0 0 0 0 0 0 0 0 0 0 0 2 9 15 40 0 0 0 0 0 0 0 0 0 0 0 0 0 0 83 90 32 42 63 68 5 7 0 1
0 0 0 0 0 0 0 0 0 0 0 0 0 0 0 0 8 5 14 14 14 0 0 0 0 0 0 0 0 0 0 0 0 0 0 0 0 0 15 28 36 15 0 0 25
0 0 0 0 0 0 0 0 0 0 0 0 0 0 0 3 4 7 4 15 0 0 0 0 12 2 18 3 0 0 0 0 0 0 0 0 0 0 30 29 26 44 24 17 64
0 0 0 0 0 0 0 0 0 0 0 0 0 0 0 0 0 2 0 2 0 0 126 32 0 0 3 0 0 0 0 0 0 0 0 0 64 48 36 0 4 14 65 150 127
0 0 0 0 0 0 0 0 0 0 0 0 0 0 0 0 0 0 0 0 0 7 0 0 0 0 0 0 0 61 122 298 62 0 0 38 73 142 0 0 0 0 78 329 195
0 0 0 0 0 0 0 0 0 0 0 0 0 0 0 0 0 0 0 0 0 0 0 0 0 0 0 13 148 151 364 477 490 333 225 165 127 26 0 0 13 204 139 219 310
0 0 0 0 0 2 1 0 0 0 0 0 0 0 0 0 0 0 0 0 0 0 0 0 0 0 0 0 6 46 129 460 490 432 217 148 2 0 16 109 215 5 101 142 150